Flag for United Kingdom Weather past 2 weeks in Poole, England, United Kingdom

Now
66 °F

Passing clouds.


Feels Like: 66 °F
Forecast: 58 / 67 °F
Wind: 22 mph from Southwest

Location: Bournemouth Airport

Current Time: Aug 4, 2015 at 5:13:55 PM

Latest Report: Aug 4, 2015 at 4:20 PM


Visibility: N/A

Pressure: 29.98 "Hg

Humidity: 52%

Dew point: 48 °F

Location of PooleLocation

Historic Weather in Poole — Graph

°F

Poole temperature yesterday

Maximum temperature yesterday: 70 °F (at 2:50 PM)
Minimum temperature yesterday: 61 °F (at 11:20 PM)
Average temperature yesterday: 65 °F

Past Weeks' High & Low Weather Summary

 TemperatureHumidityPressure
High73 °F (Aug 2, 4:50 PM)100% (Jul 20, 6:20 PM)30.15 "Hg (Jul 20, 6:20 PM)
Low41 °F (Jul 31, 4:50 AM)33% (Jul 30, 5:20 PM)29.47 "Hg (Jul 26, 3:20 PM)
Average61 °F72%29.90 "Hg
* Reported Jul 20 3:20 PM — Aug 4 3:50 PM, Poole, Weather by CustomWeather, © 2015

Note: Actual official high and low records may vary slightly from our data, if they occured in-between our weather recording intervals... More about our weather records

Advertising

Poole weather history for previous 24 hours

 ConditionsComfort  
Time TempWeatherWind HumidityBarometerVisibility
3:50 PM
Tue, Aug 4
68 °FPassing clouds.20 mph53%29.95 "HgN/A
3:20 PM66 °FPassing clouds.20 mph56%29.95 "HgN/A
2:50 PM68 °FPassing clouds.22 mph53%29.95 "HgN/A
2:20 PM66 °FPassing clouds.21 mph56%29.95 "HgN/A
1:50 PM68 °FScattered clouds.20 mph49%29.95 "HgN/A
1:20 PM68 °FScattered clouds.22 mph49%29.95 "HgN/A
12:50 PM68 °FScattered clouds.21 mph49%29.95 "HgN/A
12:20 PM63 °FScattered clouds.16 mph68%29.95 "HgN/A
11:50 AM64 °FScattered clouds.18 mph60%29.95 "HgN/A
11:20 AM63 °FScattered clouds.15 mph73%29.95 "HgN/A
10:50 AM63 °FBroken clouds.17 mph68%29.92 "HgN/A
10:20 AM61 °FScattered clouds.12 mph83%29.92 "HgN/A
9:50 AM59 °FScattered clouds.16 mph82%29.92 "HgN/A
9:20 AM64 °FScattered showers. Scattered clouds.15 mph73%29.92 "HgN/A
8:50 AM61 °FScattered clouds.10 mph77%29.92 "HgN/A
8:20 AM63 °FScattered clouds.13 mph68%29.92 "HgN/A
7:50 AM61 °FScattered clouds.12 mph68%29.92 "HgN/A
7:20 AM61 °FPartly sunny.14 mph72%29.89 "HgN/A
6:50 AM61 °FPartly sunny.9 mph72%29.89 "HgN/A
6:20 AM59 °FPassing clouds.6 mph77%29.89 "HgN/A
5:50 AM55 °FClear.6 mph88%29.89 "Hg10 mi
5:20 AM55 °FClear.3 mph82%29.89 "Hg10 mi
4:50 AM55 °FClear.5 mph88%29.89 "Hg10 mi
1:50 AM59 °FClear.10 mph82%29.86 "Hg10 mi
1:20 AM59 °FClear.8 mph82%29.86 "Hg10 mi
12:50 AM59 °FClear.7 mph82%29.86 "Hg10 mi
12:20 AM61 °FClear.9 mph83%29.86 "Hg10 mi
11:50 PM
Mon, Aug 3
61 °FClear.9 mph83%29.86 "Hg10 mi
11:20 PM61 °FPassing clouds.10 mph83%29.86 "HgN/A
10:50 PM63 °FPassing clouds.9 mph77%29.86 "HgN/A
10:20 PM63 °FPassing clouds.8 mph77%29.86 "HgN/A
9:50 PM63 °FPassing clouds.8 mph77%29.86 "HgN/A
9:20 PM63 °FPartly sunny.7 mph77%29.86 "HgN/A
8:50 PM63 °FPartly sunny.7 mph77%29.86 "HgN/A
8:20 PM64 °FPartly sunny.9 mph73%29.86 "HgN/A
7:50 PM64 °FPassing clouds.10 mph68%29.86 "HgN/A
7:20 PM64 °FPassing clouds.10 mph73%29.86 "HgN/A
6:50 PM66 °FPassing clouds.10 mph64%29.86 "HgN/A
6:20 PM66 °FPassing clouds.13 mph60%29.86 "HgN/A
5:50 PM66 °FPassing clouds.14 mph60%29.86 "HgN/A
5:20 PM68 °FPassing clouds.15 mph53%29.86 "HgN/A
Weather by CustomWeather, © 2015

See weather overviewHow to use our weather pages